Regional Weather Roundup
Issued by NWS

Home | Current Version | Previous Version | Text Only | Print | Product List | Glossary On
Versions: 1 2 3 4 5 6 7 8 9 10 11 12 13 14 15 16 17 18 19 20 21 22 23 24 25 26 27 28 29 30 31 32 33 34 35 36 37 38 39 40 41 42 43 44 45 46 47 48 49 50
000
ASUS44 KLIX 290011
RWRLA
LOUISIANA WEATHER ROUNDUP
NATIONAL WEATHER SERVICE NEW ORLEANS LA
700 PM CDT SAT MAY 28 2016

NOTE: "FAIR" INDICATES FEW OR NO CLOUDS BELOW 12,000 FEET WITH NO
      SIGNIFICANT WEATHER AND/OR OBSTRUCTIONS TO VISIBILITY.
      SKY/WX - SKY CONDITION AND SIGNIFICANT WEATHER.
      TMP - AIR TEMPERATURE.    DP   - DEWPOINT TEMPERATURE.
      RH  - RELATIVE HUMIDITY.  PRES - PRESSURE.
      HX  - HEAT INDEX.         WCI  - WIND CHILL INDEX.

*  THESE STATIONS ARE NOT NWS OR FAA STATIONS AND ARE NOT UNDER
   NWS QUALITY CONTROL.

LAZ040-048-061>063-065-066-069-290100-
SOUTHEAST LOUISIANA

CITY           SKY/WX    TMP DP  RH WIND       PRES   REMARKS
N.O. AUDUBON     N/A     79  70  74 MISG        N/A
6HR MIN TEMP:  75; 6HR MAX TEMP:  85; 6HR PCP:  0.01;

N.O. INTL ARPT CLOUDY    78  68  71 SE12      30.04R
6HR MIN TEMP:  75; 6HR MAX TEMP:  87; 6HR PCP:  0.07;

N.O. LAKEFRONT CLOUDY    78  68  71 SE13      30.05R
6HR MIN TEMP:  72; 6HR MAX TEMP:  86; 6HR PCP:  0.16;

N.O. DOWNTOWN* FAIR      77  69  76 SE8       30.06R
6HR MIN TEMP:  72; 6HR MAX TEMP:  84; 6HR PCP:  3.01;

RESERVE*       FAIR      80  70  72 SE6       30.04R
6HR MIN TEMP:  77; 6HR MAX TEMP:  87;

SLIDELL        CLOUDY    79  72  79 SE6       30.04R
6HR MIN TEMP:  72; 6HR MAX TEMP:  85; 6HR PCP: TRACE;

BATON ROUGE    CLOUDY    83  69  62 SE7       30.02R
6HR MIN TEMP:  83; 6HR MAX TEMP:  88;

BOOTHVILLE     LGT RAIN  73  70  90 N8        30.06R
6HR MIN TEMP:  74; 6HR MAX TEMP:  83; 6HR PCP: TRACE;

BELLE CHASSE   CLOUDY    76  71  85 E9        30.05R
6HR MIN TEMP:  72; 6HR MAX TEMP:  83; 6HR PCP:  0.35;

BOGALUSA*      FAIR      83  67  58 S9        30.05R
6HR MIN TEMP:  82; 6HR MAX TEMP:  86;

GALLIANO*      CLOUDY    78  70  77 CALM      30.04S THUNDER
6HR MIN TEMP:  78; 6HR MAX TEMP:  88;

NEW ROADS*     FAIR      83  70  63 N5        30.02R
6HR MIN TEMP:  82; 6HR MAX TEMP:  86;

GONZALES*      FAIR      78  69  72 SE8G16    30.02R
6HR MIN TEMP:  77; 6HR MAX TEMP:  87; 6HR PCP:  0.28;

HAMMOND*       SUNNY     79  64  61 SE8       30.04R
HOUMA*         MOSUNNY   72  72 100 CALM      30.03F
PORT FOURCHON* CLOUDY    81  72  74 E15       30.05R

$$

LAZ041-044-053-054-290100-
SOUTHWEST LOUISIANA

CITY           SKY/WX    TMP DP  RH WIND       PRES   REMARKS
LAKE CHARLES   SUNNY     83  70  64 S6        29.99S
6HR MIN TEMP:  83; 6HR MAX TEMP:  87;

LAFAYETTE      CLOUDY    82  71  69 S5        30.01R
6HR MIN TEMP:  82; 6HR MAX TEMP:  87; 6HR PCP:  0.01;

PATTERSON      CLOUDY    81  72  74 SE8       30.05R
6HR MIN TEMP:  81; 6HR MAX TEMP:  87;

SALT POINT     NOT AVBL
NEW IBERIA     SUNNY     82  70  66 S6        30.02R
6HR MIN TEMP:  82; 6HR MAX TEMP:  87;

CHENAULT AIRPK MOSUNNY  N/A N/A N/A S8          N/A

$$

LAZ027-028-290100-
CENTRAL LOUISIANA

CITY           SKY/WX    TMP DP  RH WIND       PRES   REMARKS
FORT POLK      SUNNY     79  68  70 SE6       30.00R
6HR MIN TEMP:  72; 6HR MAX TEMP:  86; 6HR PCP:  0.15;

ALEXANDRIA INT MOSUNNY   83  71  67 SE6       29.99R
6HR MIN TEMP:  82; 6HR MAX TEMP:  86;

ALEXANDRIA     SUNNY     87  70  56 CALM      30.00R
6HR MIN TEMP:  85; 6HR MAX TEMP:  89;


$$

LAZ001-002-290100-
NORTHWEST LOUISIANA

CITY           SKY/WX    TMP DP  RH WIND       PRES   REMARKS
SHREVEPORT     MOSUNNY   86  69  56 S7        29.97S
6HR MIN TEMP:  82; 6HR MAX TEMP:  89;

BARKSDALE AFB  SUNNY     85  69  57 E7        29.98R
6HR MIN TEMP:  83; 6HR MAX TEMP:  89;

DTN SHREVEPORT SUNNY     85  70  60 E6        29.97S
6HR MIN TEMP:  81; 6HR MAX TEMP:  88;


$$

LAZ014-016-290100-
NORTHEAST LOUISIANA

CITY           SKY/WX    TMP DP  RH WIND       PRES   REMARKS
MONROE         PTSUNNY   84  70  62 E3        30.01R
6HR MIN TEMP:  80; 6HR MAX TEMP:  85;

TALLULAH       SUNNY     84  67  56 S3        30.01R
6HR MIN TEMP:  84; 6HR MAX TEMP:  88;


$$




USA.gov is the U.S. government's official web portal to all federal, state and local government web resources and services.